Regional Weather Roundup
Issued by NWS

Home | Current Version | Previous Version | Graphics & Text | Print | Product List | Glossary Off
Versions: 1 2 3 4 5 6 7 8 9 10 11 12 13 14 15 16 17 18 19 20 21 22 23 24 25 26 27 28 29 30 31 32 33 34 35 36 37 38 39 40 41 42 43 44 45 46 47 48 49 50

000
ASUS43 KDMX 011108
RWRIA

WEATHER ROUNDUP FOR IOWA
NATIONAL WEATHER SERVICE DES MOINES IA
600 AM CDT SUN MAY 01 2016

NOTE: "FAIR" INDICATES FEW OR NO CLOUDS BELOW 12,000 FEET WITH NO
SIGNIFICANT WEATHER AND/OR OBSTRUCTIONS TO VISIBILITY.

* - THESE STATIONS ARE NOT NWS STATIONS...THUS NOT UNDER NWS
QUALITY CONTROL.  THEY ALSO DO NOT REPORT WEATHER SUCH
AS PRECIPITATION OR FOG.

IAZ001>003-012>014-020>022-031>034-043>046-011200-
   NORTHWEST IOWA

CITY           SKY/WX    TMP DP  RH WIND       PRES   REMARKS
CARROLL *      CLOUDY    43  43 100 NE14G20   29.98S FOG
CHEROKEE *     CLOUDY    43  41  93 NE9G17    30.04R
DENISON *      CLOUDY    43  41  93 NE15G23   29.96F
LE MARS *      MIX PCPN  43  41  93 NE12G18   30.06S
ORANGE CITY *  DRIZZLE   43  41  93 NE9       30.05S
SHELDON *      CLOUDY    43  43 100 NE17      30.05S FOG
SIOUX CITY     LGT RAIN  44  40  85 NE14      30.03S
SPENCER        CLOUDY    42  40  92 NE18      30.06R FOG
STORM LAKE *   CLOUDY    41  41 100 NE20      30.02R FOG
$$

IAZ055>058-069>071-079>083-090>094-011200-
   SOUTHWEST IOWA

CITY           SKY/WX    TMP DP  RH WIND       PRES   REMARKS
ATLANTIC *     LGT RAIN  45  43  93 NE10G16   29.95R
AUDUBON *      DRIZZLE   43  41  93 NE14      29.97S
CLARINDA *       N/A    N/A N/A N/A MISG        N/A
COUNCIL BLFS *   N/A     45  43  93 NE10G17   29.95R
CRESTON *      CLOUDY    45  45 100 NE16      29.93S FOG
HARLAN  *      CLOUDY    45  43  93 NE13      29.98S
LAMONI         CLOUDY    45  45 100 NE12      29.91S FOG
RED OAK *      CLOUDY    46  45  93 NE10      29.93S
SHENANDOAH *   CLOUDY    48  48 100 NE10      29.93R
$$

IAZ047>049-059>061-072>074-084-011200-
   CENTRAL IOWA

CITY           SKY/WX    TMP DP  RH WIND       PRES   REMARKS
AMES           CLOUDY    44  43  96 NE8       29.98R
ANKENY *       CLOUDY    45  45 100 NE8       29.96S
BOONE *        CLOUDY    43  43 100 NE12      29.97R FOG
CHARITON *     CLOUDY    45  45 100 NE9G15    29.93R FOG
DES MOINES     DRIZZLE   45  42  89 NE9       29.96S
GRINNELL*      CLOUDY    43  43 100 NE9G17    29.96R
KNOXVILLE *    CLOUDY    45  43  93 NE10      29.93F
MARSHALLTOWN   CLOUDY    44  42  93 NE22      29.94F
NEWTON *       CLOUDY    45  45 100 NE12      29.96R
PELLA *        CLOUDY    45  45 100 CALM      29.97R
$$

IAZ004>006-015-016-023>025-035-036-011200-
   NORTH CENTRAL IOWA

CITY           SKY/WX    TMP DP  RH WIND       PRES   REMARKS
ALGONA *       CLOUDY    43  41  93 NE14G21   30.04S
CLARION *      MIX PCPN  43  43 100 NE21      30.01S
ESTHERVILLE    CLOUDY    42  40  92 NE16      30.07R
FORT DODGE *   CLOUDY    43  37  81 NE14      30.01S
MASON CITY     CLOUDY    43  39  86 NE14      30.05R
FOREST CITY *  CLOUDY    41  41 100 NE10      30.05R
WEBSTER CITY * CLOUDY    43  43 100 NE16G22   29.98S FOG
IOWA FALLS *   CLOUDY    43  41  93 NE12      30.01R
$$

IAZ007>011-017>019-026>030-037>042-050>054-066-011200-
   NORTHEAST IOWA

CITY           SKY/WX    TMP DP  RH WIND       PRES   REMARKS
CEDAR RAPIDS   CLOUDY    45  45 100 NE12      29.95S FOG
CHARLES CITY * CLOUDY    45  41  87 NE14      30.02S
CLINTON *      CLOUDY    46  45  96 NE10      29.96R FOG
DECORAH *      CLOUDY    43  39  87 NE9G15    30.02R
DUBUQUE        CLOUDY    43  42  97 NE12      29.98R FOG
MONTICELLO *   CLOUDY    45  43  93 NE12      29.97S
OELWEIN *      CLOUDY    43  43 100 NE15      30.00R
WATERLOO       CLOUDY    43  40  89 NE14      30.00R
$$

IAZ064-065-067-068-078-011200-
   EAST CENTRAL IOWA

CITY           SKY/WX    TMP DP  RH WIND       PRES   REMARKS
DAVENPORT      CLOUDY    46  44  93 NE10      29.95R FOG
IOWA CITY      CLOUDY    45  44  97 NE8       29.96S
MT. PLEASANT * CLOUDY    48  48 100 NE7       29.93S FOG
MUSCATINE *    CLOUDY    46  45  93 NE9       29.95R FOG
QUAD CITIES    CLOUDY    48  45  89 NE8       29.93S FOG
$$

IAZ062-063-075>077-085>089-095>099-011200-
   SOUTHEAST IOWA

CITY           SKY/WX    TMP DP  RH WIND       PRES   REMARKS
BURLINGTON     CLOUDY    47  47 100 NE13      29.91S FOG
FAIRFIELD *    CLOUDY    45  45 100 NE10      29.93R FOG
FORT MADISON * CLOUDY    46  46 100 N7        29.93R FOG
KEOKUK *       CLOUDY    48  48 100 VRB5      29.91R FOG
OSKALOOSA *    CLOUDY    45  43  93 NE9       29.94R FOG
OTTUMWA        CLOUDY    45  44  97 NE9       29.94R
WASHINGTON *   CLOUDY    45  45 100 NE13      29.96R FOG
$$

ABBREVIATIONS USED IN REMARKS
   TC - TEMPERATURES IN CELSIUS
  WCI - WIND CHILL INDEX
   HX - HEAT INDEX
  VSB - VISIBILITY
$$





USA.gov is the U.S. government's official web portal to all federal, state and local government web resources and services.